Wind_Speed
40 40 41 40 41 41 41 42 42 41 42 43 44 44 45 45 46 46 46 46 46 45 46 46 47 47 48 47 47 47 47 46 47 46 47 48 48 47 48 49 48 49 49
39 38 38 40 41 41 41 41 41 42 42 42 43 44 45 45 46 46 47 47 46 46 47 47 47 48 48 47 47 46 46 46 46 47 48 48 48 48 49 49 50 50 50
39 38 38 38 40 40 41 42 42 43 42 42 42 43 44 45 46 46 47 47 47 47 47 47 48 49 49 48 48 47 47 47 47 47 47 47 47 48 49 48 49 49 49
38 38 39 39 39 40 41 42 42 42 42 42 42 43 44 44 45 45 46 46 46 46 47 48 48 48 48 47 47 47 47 47 47 47 47 48 48 48 48 48 47 48 48
38 39 39 39 40 40 40 40 40 41 41 41 41 42 42 43 43 44 45 46 46 47 47 47 48 48 46 46 45 46 46 47 47 47 47 47 47 48 48 47 46 46 46
36 37 38 38 38 39 39 40 40 40 41 41 41 41 40 41 41 42 44 44 46 47 47 47 47 47 46 45 45 45 45 46 46 46 46 46 46 48 48 47 47 46 46
34 35 36 37 37 37 38 39 39 39 40 41 41 40 40 40 41 42 42 44 45 45 46 46 45 45 45 45 45 44 44 45 46 46 46 46 46 47 47 47 47 47 47
33 35 36 36 37 37 37 37 37 38 40 40 41 41 41 41 42 43 44 44 44 43 44 44 42 42 42 42 41 41 42 43 44 44 44 44 44 45 44 44 46 45 45
33 34 34 35 36 37 37 37 38 39 38 39 40 41 42 42 42 43 43 43 42 41 41 40 41 40 40 40 39 39 40 40 41 41 41 41 42 43 43 43 42 42 41
33 33 34 35 37 38 38 39 39 39 39 39 40 41 41 40 41 41 42 41 40 39 37 37 37 38 39 39 39 40 39 39 40 40 40 40 40 41 41 41 41 40 39
31 33 34 35 36 38 39 40 40 39 40 41 41 41 41 40 40 40 40 39 37 36 35 35 35 35 36 37 38 38 38 39 40 40 39 38 38 38 39 39 39 38 37
31 32 33 34 35 37 39 39 39 39 40 41 41 40 39 39 39 39 38 36 35 35 33 33 33 34 34 35 35 35 36 37 39 39 38 37 36 36 37 37 36 36 36
31 32 33 33 34 36 36 36 37 38 38 39 39 38 37 37 37 36 35 34 34 33 33 32 32 33 33 33 33 34 34 35 36 36 35 34 34 34 34 34 34 34 34
30 31 32 33 34 34 35 36 36 37 37 37 37 36 36 36 35 34 33 33 33 32 31 31 32 32 33 34 33 33 34 33 34 33 32 32 32 32 32 32 31 31 31
31 31 32 33 34 34 35 36 36 36 36 36 35 35 34 34 33 33 32 32 32 31 31 31 32 32 32 33 33 34 33 33 33 32 30 30 30 30 29 29 29 29 28
31 31 32 33 34 34 34 34 34 34 34 34 34 33 32 32 32 31 31 32 31 31 31 31 31 31 31 31 32 33 32 32 32 31 31 30 29 28 28 28 28 28 27
30 30 31 31 31 31 31 30 31 31 31 31 31 31 31 30 30 30 30 30 30 30 31 31 32 32 32 32 32 31 32 32 31 30 29 28 27 26 27 27 26 26 26
29 28 28 28 27 27 27 28 28 28 28 28 28 28 28 28 28 29 29 29 29 30 31 31 31 31 31 31 31 31 30 29 29 28 27 25 24 24 24 23 23 23 23
27 26 25 25 25 26 25 26 26 26 26 26 26 26 26 27 27 28 28 29 29 29 30 30 30 30 30 30 30 30 29 28 27 25 25 24 23 23 22 22 21 21 20
25 24 25 25 24 25 25 25 25 25 25 25 25 26 26 26 27 26 26 26 27 27 28 29 29 29 30 30 30 29 28 26 25 23 23 23 22 21 20 19 19 19 19
22 23 23 23 23 23 23 22 22 22 23 23 24 24 24 25 25 25 24 25 25 26 27 28 29 29 29 29 27 26 25 24 23 22 22 21 20 19 19 19 19 19 18
22 21 22 22 22 22 22 22 22 21 22 22 23 23 24 24 25 25 25 25 26 26 27 27 28 28 27 25 24 24 23 22 22 21 21 20 19 19 19 19 18 18 17
21 21 21 21 21 21 21 21 21 22 22 23 23 23 24 24 25 24 24 25 25 25 26 26 26 25 24 24 23 22 21 21 21 20 20 19 19 20 20 19 18 17 16
19 20 20 20 19 19 19 20 21 21 21 21 22 22 23 23 23 23 23 23 24 24 25 24 24 24 23 23 22 21 20 20 19 18 18 18 18 19 18 18 17 16 15
18 18 18 18 18 18 18 19 19 19 19 20 20 21 21 22 22 22 22 22 22 22 22 21 21 22 21 21 21 20 20 19 18 17 17 17 17 17 17 16 16 15 14
18 18 17 17 17 18 18 18 18 18 18 19 19 19 19 19 19 19 20 20 20 20 20 20 20 20 19 18 18 18 17 17 17 17 16 16 16 16 15 15 14 13 12
Wind_Direction
244 246 246 246 246 247 248 249 249 250 252 252 252 254 255 258 260 262 264 266 268 270 272 273 275 276 277 277 277 278 278 280 282 283 284 285 288 290 290 292 293 295 296
244 246 246 245 245 247 249 250 251 253 254 253 255 255 257 259 261 263 264 266 268 270 271 273 275 277 277 276 276 276 278 280 281 284 286 287 287 289 291 292 293 295 295
245 246 247 246 245 248 249 251 253 254 254 255 256 258 259 261 262 263 265 267 268 269 271 273 275 277 276 275 275 275 277 278 281 284 287 288 288 290 291 293 295 295 295
245 246 247 247 247 248 249 251 253 253 255 256 258 259 261 262 263 264 266 267 268 270 272 274 275 276 276 275 274 275 276 279 281 284 285 287 288 290 292 295 296 296 297
246 247 248 249 249 249 250 251 252 253 255 257 259 261 262 264 265 266 266 268 270 271 273 275 276 276 275 275 274 275 276 278 281 283 285 287 288 289 293 296 296 297 298
247 248 249 250 250 250 250 250 252 254 256 257 258 260 262 264 266 267 268 269 271 272 273 274 276 275 275 275 275 275 276 279 281 284 286 288 289 290 293 294 295 297 298
249 249 250 250 250 250 251 252 253 254 255 256 258 259 262 264 265 267 269 272 274 273 272 273 274 274 274 273 273 275 276 277 280 284 287 289 291 292 294 295 296 298 299
250 249 249 250 250 251 253 253 254 255 257 258 258 259 261 263 266 269 271 274 275 274 273 271 272 273 272 272 273 274 276 279 281 284 286 289 290 293 294 295 297 299 299
251 251 250 250 251 253 255 254 255 257 258 259 259 261 263 265 268 270 271 273 273 272 272 271 271 272 271 272 272 274 278 281 282 284 286 288 291 293 294 296 299 299 298
253 253 253 253 254 256 256 256 258 259 260 262 264 266 266 266 268 270 271 271 271 271 273 274 273 273 273 274 274 277 279 281 282 284 284 287 290 293 295 296 298 299 298
255 256 257 257 258 259 259 259 260 262 263 264 266 267 267 267 269 271 270 270 270 270 272 273 274 275 276 276 276 277 279 281 282 283 284 285 289 292 293 296 298 299 300
257 258 259 261 262 262 262 261 262 264 265 266 267 267 267 267 268 268 268 268 267 269 270 271 273 275 277 278 277 277 280 281 281 283 284 286 288 290 293 296 297 297 299
258 259 261 264 265 265 265 265 264 265 266 267 266 266 265 266 266 266 266 264 265 267 267 270 272 273 276 277 278 279 281 282 282 283 283 283 285 289 293 295 296 297 300
262 263 265 266 267 267 267 266 266 266 267 267 267 266 264 265 265 264 263 263 264 265 267 269 271 273 275 276 276 278 281 282 283 284 282 281 286 290 292 293 294 297 300
267 268 269 269 268 267 265 265 265 265 266 266 266 266 265 263 261 260 261 262 263 265 267 269 272 273 273 275 276 277 279 282 283 283 280 280 284 289 291 292 294 295 298
270 270 272 271 269 267 266 266 265 265 265 265 266 265 262 259 258 259 259 262 263 266 268 270 271 274 276 276 278 278 278 281 283 282 282 281 282 285 289 292 294 294 296
275 274 274 273 271 268 267 266 266 265 266 266 264 261 258 256 257 257 259 261 263 266 267 269 271 273 275 277 278 279 280 281 281 282 282 281 282 284 288 291 294 296 298
276 275 275 274 272 269 266 266 266 265 265 264 261 259 257 255 255 256 258 260 263 265 266 268 270 272 274 276 277 279 280 280 281 281 281 282 284 287 289 292 296 298 299
274 273 273 273 271 269 267 267 266 265 264 262 259 258 256 255 256 257 260 262 263 265 266 267 268 270 272 274 277 278 278 278 279 278 278 279 282 286 289 291 294 297 298
271 271 272 272 271 271 269 267 266 264 262 260 258 257 255 255 256 258 260 262 264 265 265 266 267 269 271 272 275 275 275 275 275 275 276 278 280 284 287 290 294 297 298
272 273 273 272 271 271 269 265 263 261 260 258 257 256 256 257 258 259 261 263 264 265 266 267 268 268 270 272 272 271 272 274 275 275 275 277 279 283 286 290 294 297 298
274 273 273 272 271 271 267 264 262 261 260 259 258 258 258 259 260 262 263 263 264 265 266 267 268 268 269 269 269 269 270 272 273 274 276 279 281 283 287 292 295 296 297
274 274 273 273 271 269 266 265 263 261 261 260 259 259 260 260 261 262 262 264 266 266 268 267 266 263 262 264 266 267 268 269 271 273 276 278 282 285 287 289 291 292 293
273 272 273 273 271 270 269 266 264 262 262 261 260 261 262 260 260 261 262 264 265 267 267 264 260 259 260 262 264 266 267 269 271 271 273 275 280 285 286 287 288 289 290
271 270 270 270 270 271 271 269 265 262 261 260 260 261 262 262 263 262 263 266 268 268 265 262 261 260 261 263 264 264 265 267 268 269 271 272 276 280 283 285 286 287 287
272 269 267 268 269 269 269 270 266 263 262 260 260 261 263 264 265 264 265 267 267 265 262 262 262 262 261 262 262 261 261 263 265 266 268 272 275 277 278 280 283 286 287
Height
5608 5611 5616 5620 5624 5628 5631 5635 5638 5641 5644 5647 5650 5653 5655 5658 5660 5662 5663 5664 5665 5666 5666 5666 5666 5665 5664 5663 5662 5661 5660 5659 5658 5658 5657 5655 5652 5649 5646 5642 5638 5634 5629
5598 5602 5606 5610 5614 5618 5622 5625 5628 5632 5634 5637 5640 5642 5645 5647 5649 5650 5652 5653 5653 5654 5654 5654 5654 5653 5652 5651 5650 5650 5649 5647 5646 5646 5645 5642 5640 5636 5633 5630 5626 5622 5617
5590 5594 5597 5601 5605 5608 5612 5616 5619 5622 5625 5628 5630 5632 5635 5636 5638 5639 5640 5641 5642 5642 5642 5642 5641 5640 5639 5639 5638 5638 5637 5636 5634 5634 5632 5630 5628 5624 5621 5617 5613 5609 5605
5582 5585 5589 5592 5595 5599 5602 5606 5609 5612 5615 5618 5620 5622 5624 5626 5627 5628 5628 5629 5630 5630 5630 5630 5629 5628 5627 5626 5626 5626 5625 5624 5623 5622 5621 5619 5616 5612 5609 5605 5602 5597 5593
5573 5576 5580 5583 5586 5589 5593 5596 5599 5602 5605 5608 5610 5612 5613 5615 5616 5617 5617 5617 5618 5618 5618 5618 5617 5616 5615 5614 5614 5614 5613 5613 5612 5610 5608 5606 5604 5600 5597 5593 5589 5585 5581
5565 5568 5571 5574 5577 5580 5583 5586 5589 5592 5595 5597 5599 5601 5603 5604 5605 5605 5606 5606 5606 5606 5606 5605 5604 5603 5603 5603 5602 5602 5602 5601 5600 5598 5596 5594 5592 5589 5585 5581 5577 5574 5571
5557 5559 5562 5565 5568 5571 5574 5577 5580 5582 5585 5587 5589 5591 5592 5593 5594 5594 5594 5594 5594 5594 5593 5593 5592 5591 5591 5591 5591 5591 5591 5590 5589 5587 5585 5583 5580 5578 5575 5571 5566 5562 5558
5549 5552 5554 5557 5559 5563 5565 5568 5570 5573 5575 5577 5579 5580 5582 5583 5583 5583 5583 5583 5583 5582 5581 5581 5580 5580 5580 5580 5580 5580 5580 5579 5578 5577 5575 5573 5570 5567 5563 5560 5556 5552 5547
5541 5544 5546 5548 5551 5554 5556 5559 5561 5563 5565 5566 5568 5569 5571 5572 5572 5572 5572 5572 5572 5571 5570 5570 5570 5570 5570 5570 5570 5570 5570 5569 5567 5566 5564 5562 5559 5556 5553 5549 5545 5542 5538
5534 5536 5538 5540 5542 5544 5547 5549 5551 5552 5554 5555 5556 5558 5559 5560 5561 5561 5560 5561 5561 5561 5560 5560 5560 5560 5560 5560 5560 5560 5560 5559 5558 5556 5554 5552 5549 5546 5542 5539 5536 5532 5528
5526 5527 5529 5531 5533 5535 5537 5539 5540 5541 5543 5544 5545 5546 5547 5549 5549 5549 5549 5550 5551 5551 5551 5551 5551 5551 5550 5550 5550 5550 5549 5549 5548 5546 5544 5542 5540 5537 5534 5530 5527 5523 5519
5517 5519 5520 5522 5523 5524 5526 5528 5529 5530 5532 5533 5534 5535 5536 5537 5538 5538 5539 5539 5540 5541 5542 5542 5542 5542 5542 5541 5541 5540 5540 5539 5538 5536 5535 5533 5531 5528 5525 5522 5518 5515 5511
5509 5510 5511 5512 5513 5514 5516 5517 5518 5520 5521 5522 5523 5524 5525 5526 5527 5528 5529 5530 5531 5532 5533 5533 5533 5533 5533 5533 5532 5531 5530 5529 5528 5526 5525 5524 5522 5520 5517 5514 5511 5507 5504
5501 5502 5502 5503 5504 5505 5505 5507 5508 5509 5510 5511 5512 5513 5515 5516 5517 5518 5519 5520 5522 5523 5524 5524 5525 5525 5525 5524 5523 5522 5521 5520 5518 5517 5515 5515 5513 5511 5509 5507 5504 5501 5498
5493 5493 5493 5494 5494 5495 5495 5496 5498 5499 5500 5501 5502 5503 5504 5506 5507 5508 5510 5512 5513 5514 5515 5516 5516 5516 5516 5515 5514 5513 5512 5511 5509 5508 5507 5506 5505 5504 5502 5499 5496 5494 5491
5484 5484 5484 5484 5484 5484 5485 5486 5487 5488 5489 5490 5491 5493 5494 5496 5497 5499 5501 5503 5504 5506 5507 5507 5508 5508 5507 5506 5506 5505 5503 5503 5501 5500 5499 5498 5497 5495 5494 5491 5489 5487 5485
5475 5475 5474 5474 5474 5475 5475 5476 5478 5479 5479 5480 5482 5483 5484 5486 5488 5490 5492 5494 5496 5497 5498 5498 5498 5499 5498 5498 5497 5496 5495 5494 5493 5492 5491 5490 5489 5488 5487 5485 5483 5481 5479
5466 5466 5466 5466 5466 5466 5467 5468 5469 5470 5471 5471 5473 5474 5476 5478 5480 5482 5484 5485 5487 5488 5488 5489 5489 5489 5489 5489 5489 5488 5487 5486 5485 5485 5484 5483 5483 5482 5480 5479 5477 5476 5473
5459 5459 5459 5459 5459 5459 5460 5460 5461 5462 5463 5464 5465 5466 5468 5470 5472 5474 5475 5476 5478 5478 5479 5480 5480 5480 5480 5481 5480 5480 5479 5479 5478 5477 5477 5476 5476 5475 5474 5473 5471 5470 5468
5452 5451 5452 5452 5452 5452 5452 5452 5453 5454 5455 5456 5458 5459 5460 5462 5464 5466 5467 5468 5469 5470 5470 5471 5472 5472 5472 5472 5472 5472 5471 5471 5471 5471 5470 5470 5470 5469 5468 5467 5466 5464 5463
5445 5445 5445 5445 5445 5444 5445 5445 5445 5446 5448 5449 5451 5452 5453 5455 5457 5458 5459 5460 5461 5462 5462 5463 5463 5463 5464 5464 5464 5464 5464 5464 5464 5464 5464 5464 5464 5464 5463 5462 5461 5459 5458
5438 5438 5438 5438 5438 5438 5438 5438 5439 5440 5441 5442 5444 5445 5446 5448 5449 5450 5451 5452 5453 5453 5454 5454 5455 5455 5456 5456 5457 5457 5457 5457 5458 5458 5458 5458 5458 5458 5458 5457 5456 5455 5453
5432 5431 5431 5431 5431 5431 5431 5432 5433 5434 5434 5435 5437 5438 5439 5440 5441 5442 5443 5444 5445 5445 5446 5446 5447 5447 5448 5449 5449 5450 5450 5451 5451 5452 5452 5452 5453 5453 5452 5451 5450 5450 5449
5426 5426 5426 5425 5425 5425 5425 5425 5426 5427 5428 5429 5430 5431 5432 5433 5434 5435 5436 5436 5437 5437 5438 5438 5439 5440 5441 5442 5442 5443 5444 5445 5445 5446 5446 5447 5447 5447 5447 5446 5446 5445 5444
5421 5420 5420 5420 5420 5420 5420 5420 5420 5420 5421 5422 5423 5424 5425 5426 5427 5428 5429 5429 5430 5430 5431 5431 5432 5433 5434 5435 5436 5437 5437 5438 5439 5440 5441 5441 5442 5442 5442 5441 5441 5440 5440
5415 5415 5415 5415 5414 5414 5414 5414 5414 5415 5415 5416 5417 5418 5419 5419 5420 5421 5422 5422 5423 5423 5424 5425 5425 5426 5427 5428 5429 5430 5431 5432 5434 5435 5435 5436 5436 5436 5437 5437 5437 5436 5436